| time (UTC) | temp F | wind direction | speed knots | gust knots | rain 1hr in | rain 24hr in | rain mn in | humidity % | barometer mb |
| 20260508022207 | 66 | 258 | 11.3 | 20.9 | 0.00 | 0.00 | 0.00 | 39 | 1016.1 |
| 20260508021707 | 66 | 262 | 13.0 | 22.6 | 0.00 | 0.00 | 0.00 | 38 | 1016.1 |
| 20260508021208 | 66 | 248 | 17.4 | 22.6 | 0.00 | 0.00 | 0.00 | 38 | 1016.4 |
| 20260508020208 | 65 | 273 | 15.6 | 22.6 | 0.00 | 0.00 | 0.00 | 39 | 1016.6 |
| 20260508015707 | 65 | 273 | 15.6 | 22.6 | 0.00 | 0.00 | 0.00 | 39 | 1016.4 |
| 20260508015207 | 65 | 252 | 13.9 | 22.6 | 0.00 | 0.00 | 0.00 | 40 | 1016.6 |
| 20260508014707 | 65 | 269 | 13.9 | 20.0 | 0.00 | 0.00 | 0.00 | 40 | 1016.8 |
| 20260508014208 | 65 | 264 | 14.8 | 20.0 | 0.00 | 0.00 | 0.00 | 40 | 1016.6 |
| 20260508013707 | 65 | 258 | 18.2 | 25.2 | 0.00 | 0.00 | 0.00 | 40 | 1016.6 |
| 20260508013207 | 65 | 266 | 13.9 | 20.0 | 0.00 | 0.00 | 0.00 | 41 | 1016.8 |
| 20260508012708 | 64 | 277 | 13.9 | 22.6 | 0.00 | 0.00 | 0.00 | 41 | 1016.8 |
| 20260508012207 | 64 | 265 | 20.9 | 25.2 | 0.00 | 0.00 | 0.00 | 40 | 1016.9 |
| 20260508010708 | 64 | 263 | 11.3 | 19.1 | 0.00 | 0.00 | 0.00 | 42 | 1017.2 |
| 20260508010208 | 63 | 264 | 18.2 | 24.3 | 0.00 | 0.00 | 0.00 | 41 | 1017.1 |
| 20260508005707 | 63 | 249 | 14.8 | 25.2 | 0.00 | 0.00 | 0.00 | 42 | 1017.1 |
| 20260508005207 | 63 | 261 | 20.9 | 24.3 | 0.00 | 0.00 | 0.00 | 42 | 1017.2 |
| 20260508004207 | 62 | 273 | 19.1 | 26.9 | 0.00 | 0.00 | 0.00 | 43 | 1017.5 |
| 20260508003708 | 62 | 283 | 19.1 | 28.7 | 0.00 | 0.00 | 0.00 | 43 | 1017.4 |
| 20260508003207 | 62 | 272 | 19.1 | 26.1 | 0.00 | 0.00 | 0.00 | 44 | 1017.4 |
| 20260508002707 | 62 | 269 | 18.2 | 26.9 | 0.00 | 0.00 | 0.00 | 45 | 1017.5 |
| 20260508002207 | 62 | 278 | 11.3 | 20.9 | 0.00 | 0.00 | 0.00 | 46 | 1017.5 |
| 20260508001708 | 61 | 271 | 17.4 | 22.6 | 0.00 | 0.00 | 0.00 | 45 | 1017.4 |
| 20260508000707 | 61 | 271 | 17.4 | 22.6 | 0.00 | 0.00 | 0.00 | 47 | 1017.8 |
| 20260508000207 | 60 | 275 | 18.2 | 25.2 | 0.00 | 0.00 | 0.00 | 47 | 1017.7 |
| 20260507235708 | 60 | 283 | 14.8 | 20.0 | 0.00 | 0.00 | 0.00 | 47 | 1017.7 |
| 20260507235207 | 60 | 276 | 12.2 | 17.4 | 0.00 | 0.00 | 0.00 | 48 | 1017.7 |
| 20260507233207 | 58 | 273 | 18.2 | 22.6 | 0.00 | 0.00 | 0.00 | 50 | 1017.8 |
| 20260507232707 | 58 | 279 | 14.8 | 21.7 | 0.00 | 0.00 | 0.00 | 50 | 1017.9 |
| 20260507232207 | 58 | 275 | 19.1 | 25.2 | 0.00 | 0.00 | 0.00 | 49 | 1017.8 |
| 20260507231707 | 58 | 271 | 15.6 | 25.2 | 0.00 | 0.00 | 0.00 | 50 | 1017.8 |
| 20260507231207 | 58 | 281 | 13.0 | 22.6 | 0.00 | 0.00 | 0.00 | 51 | 1017.9 |
| 20260507230707 | 57 | 279 | 13.9 | 26.9 | 0.00 | 0.00 | 0.00 | 51 | 1017.8 |
| 20260507230207 | 57 | 271 | 20.9 | 26.1 | 0.00 | 0.00 | 0.00 | 51 | 1017.8 |
| 20260507225707 | 57 | 270 | 18.2 | 26.1 | 0.00 | 0.00 | 0.00 | 51 | 1017.9 |
| 20260507225208 | 57 | 268 | 16.5 | 25.2 | 0.00 | 0.00 | 0.00 | 52 | 1017.7 |
| 20260507224207 | 56 | 282 | 19.1 | 26.9 | 0.00 | 0.00 | 0.00 | 53 | 1017.6 |
| 20260507223707 | 55 | 279 | 15.6 | 25.2 | 0.00 | 0.00 | 0.00 | 53 | 1017.7 |
| 20260507222708 | 55 | 287 | 17.4 | 22.6 | 0.00 | 0.00 | 0.00 | 54 | 1017.9 |
| 20260507222208 | 54 | 276 | 15.6 | 22.6 | 0.00 | 0.00 | 0.00 | 55 | 1017.9 |
| 20260507221707 | 54 | 281 | 13.9 | 21.7 | 0.00 | 0.00 | 0.00 | 55 | 1017.7 |
| 20260507221207 | 54 | 282 | 14.8 | 21.7 | 0.00 | 0.00 | 0.00 | 55 | 1017.6 |
| 20260507220207 | 53 | 282 | 13.9 | 18.2 | 0.00 | 0.00 | 0.00 | 55 | 1017.7 |
| 20260507215707 | 53 | 273 | 15.6 | 22.6 | 0.00 | 0.00 | 0.00 | 56 | 1017.6 |
| 20260507214707 | 53 | 285 | 14.8 | 20.9 | 0.00 | 0.00 | 0.00 | 56 | 1017.7 |
| 20260507213708 | 53 | 276 | 15.6 | 20.9 | 0.00 | 0.00 | 0.00 | 56 | 1017.6 |
| 20260507213207 | 53 | 279 | 14.8 | 20.0 | 0.00 | 0.00 | 0.00 | 56 | 1017.5 |
| 20260507212707 | 52 | 281 | 13.9 | 20.0 | 0.00 | 0.00 | 0.00 | 56 | 1017.5 |
| 20260507211707 | 52 | 285 | 17.4 | 22.6 | 0.00 | 0.00 | 0.00 | 56 | 1017.2 |
| 20260507211207 | 52 | 275 | 20.9 | 26.1 | 0.00 | 0.00 | 0.00 | 56 | 1017.3 |
| 20260507210707 | 52 | 282 | 17.4 | 22.6 | 0.00 | 0.00 | 0.00 | 57 | 1017.1 |
| 20260507205707 | 51 | 273 | 16.5 | 20.9 | 0.00 | 0.00 | 0.00 | 58 | 1017.4 |
| 20260507205207 | 50 | 279 | 17.4 | 20.9 | 0.00 | 0.00 | 0.00 | 58 | 1017.3 |
| 20260507204707 | 50 | 281 | 18.2 | 22.6 | 0.00 | 0.00 | 0.00 | 59 | 1017.2 |
| 20260507204207 | 50 | 280 | 13.9 | 20.9 | 0.00 | 0.00 | 0.00 | 58 | 1017.2 |
| 20260507203707 | 50 | 281 | 13.9 | 19.1 | 0.00 | 0.00 | 0.00 | 58 | 1017.3 |
| 20260507203207 | 50 | 284 | 15.6 | 19.1 | 0.00 | 0.00 | 0.00 | 57 | 1017.4 |
| 20260507202706 | 50 | 282 | 15.6 | 20.0 | 0.00 | 0.00 | 0.00 | 58 | 1017.5 |
| 20260507202207 | 50 | 283 | 14.8 | 20.0 | 0.00 | 0.00 | 0.00 | 57 | 1017.4 |
| 20260507201207 | 50 | 282 | 12.2 | 19.1 | 0.00 | 0.00 | 0.00 | 58 | 1017.5 |
| 20260507200707 | 50 | 281 | 13.0 | 18.2 | 0.00 | 0.00 | 0.00 | 57 | 1017.4 |
| 20260507200207 | 51 | 279 | 13.9 | 20.0 | 0.00 | 0.00 | 0.00 | 58 | 1017.2 |
| 20260507195707 | 51 | 279 | 13.9 | 20.0 | 0.00 | 0.00 | 0.00 | 57 | 1017.3 |
| 20260507195207 | 51 | 278 | 14.8 | 21.7 | 0.00 | 0.00 | 0.00 | 57 | 1017.3 |
| 20260507194707 | 51 | 277 | 15.6 | 21.7 | 0.00 | 0.00 | 0.00 | 57 | 1017.3 |
| 20260507194207 | 51 | 278 | 13.0 | 19.1 | 0.00 | 0.00 | 0.00 | 57 | 1017.4 |
| 20260507193707 | 51 | 272 | 14.8 | 20.9 | 0.00 | 0.00 | 0.00 | 56 | 1017.3 |
| 20260507193207 | 51 | 275 | 13.9 | 20.0 | 0.00 | 0.00 | 0.00 | 56 | 1017.3 |
| 20260507192707 | 51 | 275 | 13.9 | 20.0 | 0.00 | 0.00 | 0.00 | 56 | 1017.3 |
| 20260507192207 | 51 | 275 | 13.0 | 20.0 | 0.00 | 0.00 | 0.00 | 56 | 1017.3 |
| 20260507191207 | 51 | 275 | 15.6 | 20.9 | 0.00 | 0.00 | 0.00 | 55 | 1017.2 |
| 20260507190707 | 51 | 273 | 13.9 | 20.9 | 0.00 | 0.00 | 0.00 | 55 | 1017.1 |
| 20260507190207 | 51 | 265 | 14.8 | 20.0 | 0.00 | 0.00 | 0.00 | 56 | 1017.2 |
| 20260507185707 | 51 | 276 | 13.9 | 18.2 | 0.00 | 0.00 | 0.00 | 55 | 1017.3 |
| 20260507185206 | 51 | 281 | 11.3 | 15.6 | 0.00 | 0.00 | 0.00 | 55 | 1017.4 |
| 20260507184707 | 51 | 284 | 12.2 | 20.0 | 0.00 | 0.00 | 0.00 | 55 | 1017.4 |
| 20260507184207 | 51 | 273 | 12.2 | 17.4 | 0.00 | 0.00 | 0.00 | 55 | 1017.3 |
| 20260507183707 | 51 | 271 | 13.9 | 19.1 | 0.00 | 0.00 | 0.00 | 55 | 1017.3 |
| 20260507183206 | 51 | 275 | 14.8 | 20.9 | 0.00 | 0.00 | 0.00 | 55 | 1017.6 |
| 20260507182707 | 51 | 270 | 11.3 | 18.2 | 0.00 | 0.00 | 0.00 | 55 | 1017.6 |
| 20260507182207 | 52 | 273 | 15.6 | 22.6 | 0.00 | 0.00 | 0.00 | 54 | 1017.4 |
| 20260507181707 | 52 | 282 | 12.2 | 17.4 | 0.00 | 0.00 | 0.00 | 55 | 1017.4 |
| 20260507181206 | 52 | 267 | 12.2 | 18.2 | 0.00 | 0.00 | 0.00 | 55 | 1017.3 |
| 20260507180709 | 51 | 272 | 11.3 | 21.7 | 0.00 | 0.00 | 0.00 | 55 | 1017.2 |
| 20260507180207 | 51 | 267 | 14.8 | 21.7 | 0.00 | 0.00 | 0.00 | 55 | 1017.2 |
| 20260507175707 | 51 | 270 | 13.9 | 20.9 | 0.00 | 0.00 | 0.00 | 55 | 1017.2 |
| 20260507175206 | 51 | 262 | 13.9 | 19.1 | 0.00 | 0.00 | 0.00 | 56 | 1017.2 |
| 20260507174207 | 51 | 258 | 14.8 | 22.6 | 0.00 | 0.00 | 0.00 | 56 | 1017.3 |
| 20260507173207 | 51 | 259 | 14.8 | 22.6 | 0.00 | 0.00 | 0.00 | 55 | 1017.4 |
| 20260507172706 | 51 | 261 | 13.9 | 20.0 | 0.00 | 0.00 | 0.00 | 56 | 1017.6 |
| 20260507172206 | 51 | 264 | 12.2 | 19.1 | 0.00 | 0.00 | 0.00 | 56 | 1017.6 |
| 20260507171706 | 51 | 273 | 12.2 | 19.1 | 0.00 | 0.00 | 0.00 | 56 | 1017.6 |
| 20260507171206 | 51 | 261 | 13.9 | 20.9 | 0.00 | 0.00 | 0.00 | 55 | 1017.8 |
| 20260507170706 | 51 | 271 | 15.6 | 20.9 | 0.00 | 0.00 | 0.00 | 55 | 1017.6 |
| 20260507170207 | 51 | 272 | 13.9 | 19.1 | 0.00 | 0.00 | 0.00 | 55 | 1017.7 |
| 20260507165706 | 51 | 275 | 15.6 | 22.6 | 0.00 | 0.00 | 0.00 | 54 | 1017.7 |
| 20260507165206 | 51 | 275 | 12.2 | 17.4 | 0.00 | 0.00 | 0.00 | 54 | 1017.9 |
| 20260507164206 | 51 | 269 | 13.9 | 17.4 | 0.00 | 0.00 | 0.00 | 54 | 1017.9 |
| 20260507163206 | 51 | 273 | 15.6 | 22.6 | 0.00 | 0.00 | 0.00 | 54 | 1017.9 |
| 20260507162706 | 51 | 270 | 14.8 | 22.6 | 0.00 | 0.00 | 0.00 | 54 | 1018.0 |
| 20260507162206 | 51 | 271 | 18.2 | 24.3 | 0.00 | 0.00 | 0.00 | 53 | 1018.0 |
| 20260507161706 | 51 | 267 | 13.9 | 21.7 | 0.00 | 0.00 | 0.00 | 54 | 1017.9 |
| 20260507161206 | 51 | 266 | 15.6 | 22.6 | 0.00 | 0.00 | 0.00 | 54 | 1018.0 |
| 20260507160706 | 51 | 272 | 16.5 | 22.6 | 0.00 | 0.00 | 0.00 | 53 | 1018.1 |
| 20260507155707 | 51 | 277 | 19.1 | 26.9 | 0.00 | 0.00 | 0.00 | 52 | 1018.2 |
| 20260507155206 | 51 | 267 | 18.2 | 22.6 | 0.00 | 0.00 | 0.00 | 52 | 1018.3 |
| 20260507154706 | 51 | 276 | 15.6 | 22.6 | 0.00 | 0.00 | 0.00 | 52 | 1018.3 |
| 20260507154206 | 51 | 269 | 16.5 | 25.2 | 0.00 | 0.00 | 0.00 | 52 | 1018.5 |
| 20260507153707 | 51 | 269 | 16.5 | 21.7 | 0.00 | 0.00 | 0.00 | 51 | 1018.5 |
| 20260507153206 | 51 | 269 | 16.5 | 26.1 | 0.00 | 0.00 | 0.00 | 52 | 1018.5 |
| 20260507152706 | 51 | 270 | 13.9 | 20.0 | 0.00 | 0.00 | 0.00 | 51 | 1018.6 |
| 20260507151707 | 51 | 269 | 13.9 | 21.7 | 0.00 | 0.00 | 0.00 | 51 | 1018.6 |
| 20260507151206 | 51 | 262 | 16.5 | 21.7 | 0.00 | 0.00 | 0.00 | 51 | 1018.8 |
| 20260507150706 | 51 | 273 | 11.3 | 17.4 | 0.00 | 0.00 | 0.00 | 50 | 1018.9 |
| 20260507150206 | 51 | 271 | 13.9 | 20.0 | 0.00 | 0.00 | 0.00 | 50 | 1018.8 |
| 20260507145706 | 51 | 278 | 11.3 | 18.2 | 0.00 | 0.00 | 0.00 | 50 | 1018.8 |
| 20260507145207 | 51 | 278 | 13.9 | 26.1 | 0.00 | 0.00 | 0.00 | 49 | 1018.9 |
| 20260507144706 | 51 | 261 | 15.6 | 24.3 | 0.00 | 0.00 | 0.00 | 49 | 1019.1 |
| 20260507144206 | 51 | 271 | 14.8 | 24.3 | 0.00 | 0.00 | 0.00 | 49 | 1019.1 |
| 20260507143707 | 51 | 266 | 15.6 | 22.6 | 0.00 | 0.00 | 0.00 | 49 | 1019.1 |
| 20260507143206 | 51 | 270 | 20.0 | 26.9 | 0.00 | 0.00 | 0.00 | 48 | 1019.0 |
| 20260507142706 | 51 | 257 | 18.2 | 27.8 | 0.00 | 0.00 | 0.00 | 48 | 1019.1 |
| 20260507142206 | 52 | 271 | 16.5 | 26.9 | 0.00 | 0.00 | 0.00 | 48 | 1018.9 |
| 20260507141707 | 52 | 262 | 17.4 | 26.9 | 0.00 | 0.00 | 0.00 | 48 | 1018.9 |
| 20260507140706 | 52 | 266 | 14.8 | 21.7 | 0.00 | 0.00 | 0.00 | 48 | 1018.9 |
| 20260507140206 | 52 | 258 | 15.6 | 21.7 | 0.00 | 0.00 | 0.00 | 47 | 1019.0 |
| 20260507135706 | 52 | 260 | 18.2 | 25.2 | 0.00 | 0.00 | 0.00 | 47 | 1018.8 |
| 20260507134706 | 52 | 256 | 21.7 | 27.8 | 0.00 | 0.00 | 0.00 | 47 | 1018.7 |
| 20260507134206 | 52 | 265 | 20.0 | 26.9 | 0.00 | 0.00 | 0.00 | 47 | 1018.7 |
| 20260507133706 | 52 | 268 | 18.2 | 26.1 | 0.00 | 0.00 | 0.00 | 47 | 1018.9 |
| 20260507133206 | 52 | 265 | 20.9 | 26.9 | 0.00 | 0.00 | 0.00 | 47 | 1018.8 |
| 20260507132706 | 52 | 262 | 20.9 | 28.7 | 0.00 | 0.00 | 0.00 | 47 | 1018.8 |
| 20260507132206 | 52 | 246 | 15.6 | 24.3 | 0.00 | 0.00 | 0.00 | 48 | 1018.7 |
| 20260507131206 | 52 | 258 | 17.4 | 24.3 | 0.00 | 0.00 | 0.00 | 47 | 1018.8 |
| 20260507130706 | 52 | 253 | 18.2 | 25.2 | 0.00 | 0.00 | 0.00 | 47 | 1018.8 |
| 20260507130206 | 52 | 256 | 22.6 | 30.4 | 0.00 | 0.00 | 0.00 | 46 | 1018.6 |
| 20260507125706 | 52 | 258 | 17.4 | 26.1 | 0.00 | 0.00 | 0.00 | 48 | 1018.8 |
| 20260507125206 | 52 | 259 | 15.6 | 26.1 | 0.00 | 0.00 | 0.00 | 47 | 1018.7 |
| 20260507124706 | 52 | 260 | 20.9 | 27.8 | 0.00 | 0.00 | 0.00 | 46 | 1018.7 |
| 20260507124206 | 52 | 263 | 14.8 | 21.7 | 0.00 | 0.00 | 0.00 | 46 | 1018.6 |
| 20260507123706 | 52 | 266 | 13.9 | 22.6 | 0.00 | 0.00 | 0.00 | 46 | 1018.7 |
| 20260507123206 | 52 | 257 | 17.4 | 26.9 | 0.00 | 0.00 | 0.00 | 46 | 1019.0 |
| 20260507122707 | 52 | 271 | 15.6 | 21.7 | 0.00 | 0.00 | 0.00 | 46 | 1019.0 |
| 20260507122206 | 52 | 269 | 18.2 | 26.1 | 0.00 | 0.00 | 0.00 | 45 | 1019.0 |
| 20260507121706 | 52 | 273 | 11.3 | 19.1 | 0.00 | 0.00 | 0.00 | 46 | 1019.2 |
| 20260507121206 | 52 | 269 | 15.6 | 24.3 | 0.00 | 0.00 | 0.00 | 45 | 1018.8 |
| 20260507120206 | 52 | 273 | 15.6 | 27.8 | 0.00 | 0.00 | 0.00 | 45 | 1018.9 |
| 20260507115706 | 52 | 268 | 20.0 | 26.1 | 0.00 | 0.00 | 0.00 | 44 | 1019.0 |
| 20260507115206 | 52 | 267 | 14.8 | 20.0 | 0.00 | 0.00 | 0.00 | 44 | 1019.1 |
| 20260507114706 | 53 | 274 | 14.8 | 22.6 | 0.00 | 0.00 | 0.00 | 44 | 1019.2 |
| 20260507114206 | 53 | 274 | 13.9 | 22.6 | 0.00 | 0.00 | 0.00 | 44 | 1019.1 |
| 20260507113706 | 53 | 273 | 15.6 | 25.2 | 0.00 | 0.00 | 0.00 | 44 | 1019.1 |
| 20260507113207 | 53 | 274 | 15.6 | 25.2 | 0.00 | 0.00 | 0.00 | 44 | 1019.1 |
| 20260507112206 | 53 | 277 | 15.6 | 21.7 | 0.00 | 0.00 | 0.00 | 44 | 1018.8 |
| 20260507111706 | 53 | 278 | 13.9 | 20.9 | 0.00 | 0.00 | 0.00 | 43 | 1018.8 |
| 20260507111206 | 53 | 273 | 12.2 | 18.2 | 0.00 | 0.00 | 0.00 | 43 | 1018.6 |
| 20260507110706 | 53 | 275 | 13.9 | 22.6 | 0.00 | 0.00 | 0.00 | 43 | 1018.6 |
| 20260507110206 | 53 | 280 | 13.9 | 25.2 | 0.00 | 0.00 | 0.00 | 43 | 1018.5 |
| 20260507105706 | 53 | 268 | 18.2 | 26.9 | 0.00 | 0.00 | 0.00 | 42 | 1018.7 |
| 20260507105206 | 53 | 264 | 22.6 | 32.2 | 0.00 | 0.00 | 0.00 | 42 | 1018.5 |
| 20260507104705 | 53 | 266 | 17.4 | 26.9 | 0.00 | 0.00 | 0.00 | 42 | 1018.5 |
| 20260507104206 | 53 | 265 | 20.0 | 26.9 | 0.00 | 0.00 | 0.00 | 42 | 1018.3 |
| 20260507103706 | 53 | 269 | 17.4 | 25.2 | 0.00 | 0.00 | 0.00 | 42 | 1018.3 |
| 20260507103206 | 54 | 268 | 12.2 | 24.3 | 0.00 | 0.00 | 0.00 | 43 | 1018.4 |
| 20260507102706 | 54 | 264 | 14.8 | 28.7 | 0.00 | 0.00 | 0.00 | 42 | 1018.2 |
| 20260507102206 | 54 | 264 | 19.1 | 26.9 | 0.00 | 0.00 | 0.00 | 41 | 1018.1 |
| 20260507101706 | 54 | 261 | 18.2 | 26.1 | 0.00 | 0.00 | 0.00 | 41 | 1018.2 |
| 20260507101206 | 54 | 269 | 20.0 | 30.4 | 0.00 | 0.00 | 0.00 | 41 | 1018.2 |
| 20260507100706 | 54 | 251 | 19.1 | 33.9 | 0.00 | 0.00 | 0.00 | 40 | 1018.0 |
| 20260507100206 | 54 | 246 | 19.1 | 28.7 | 0.00 | 0.00 | 0.00 | 40 | 1018.1 |
| 20260507095206 | 54 | 257 | 13.0 | 24.3 | 0.00 | 0.00 | 0.00 | 40 | 1018.1 |
| 20260507094706 | 54 | 268 | 18.2 | 27.8 | 0.00 | 0.00 | 0.00 | 40 | 1018.0 |
| 20260507094206 | 54 | 264 | 19.1 | 31.3 | 0.00 | 0.00 | 0.00 | 39 | 1017.9 |
| 20260507092205 | 54 | 264 | 18.2 | 26.1 | 0.00 | 0.00 | 0.00 | 39 | 1017.8 |
| 20260507091705 | 54 | 269 | 15.6 | 22.6 | 0.00 | 0.00 | 0.00 | 39 | 1017.6 |
| 20260507091206 | 54 | 265 | 17.4 | 27.8 | 0.00 | 0.00 | 0.00 | 39 | 1017.6 |
| 20260507090205 | 55 | 266 | 14.8 | 21.7 | 0.00 | 0.00 | 0.00 | 39 | 1017.5 |
| 20260507085705 | 55 | 276 | 16.5 | 21.7 | 0.00 | 0.00 | 0.00 | 38 | 1017.7 |
| 20260507085205 | 55 | 263 | 20.0 | 28.7 | 0.00 | 0.00 | 0.00 | 38 | 1017.3 |
| 20260507084706 | 55 | 275 | 13.9 | 21.7 | 0.00 | 0.00 | 0.00 | 39 | 1017.4 |
| 20260507084206 | 55 | 272 | 15.6 | 22.6 | 0.00 | 0.00 | 0.00 | 38 | 1017.4 |
| 20260507083706 | 55 | 269 | 17.4 | 26.1 | 0.00 | 0.00 | 0.00 | 38 | 1017.1 |
| 20260507083206 | 55 | 273 | 15.6 | 25.2 | 0.00 | 0.00 | 0.00 | 37 | 1017.1 |
| 20260507082706 | 55 | 272 | 13.9 | 25.2 | 0.00 | 0.00 | 0.00 | 37 | 1017.0 |
| 20260507081706 | 55 | 272 | 18.2 | 26.1 | 0.00 | 0.00 | 0.00 | 36 | 1016.9 |
| 20260507081205 | 55 | 269 | 14.8 | 21.7 | 0.00 | 0.00 | 0.00 | 37 | 1016.7 |
| 20260507080706 | 55 | 258 | 15.6 | 22.6 | 0.00 | 0.00 | 0.00 | 37 | 1016.6 |
| 20260507080205 | 56 | 261 | 18.2 | 26.1 | 0.00 | 0.00 | 0.00 | 36 | 1016.5 |
| 20260507075706 | 56 | 265 | 15.6 | 26.1 | 0.00 | 0.00 | 0.00 | 37 | 1016.4 |
| 20260507075206 | 56 | 258 | 14.8 | 22.6 | 0.00 | 0.00 | 0.00 | 37 | 1016.4 |
| 20260507074706 | 56 | 263 | 17.4 | 24.3 | 0.00 | 0.00 | 0.00 | 37 | 1016.3 |
| 20260507074206 | 56 | 269 | 17.4 | 22.6 | 0.00 | 0.00 | 0.00 | 36 | 1016.1 |
| 20260507073705 | 56 | 270 | 14.8 | 27.8 | 0.00 | 0.00 | 0.00 | 37 | 1015.9 |
| 20260507073206 | 56 | 275 | 13.9 | 22.6 | 0.00 | 0.00 | 0.00 | 37 | 1015.8 |
| 20260507072705 | 56 | 267 | 16.5 | 22.6 | 0.00 | 0.00 | 0.00 | 36 | 1015.8 |
| 20260507072206 | 56 | 274 | 14.8 | 22.6 | 0.00 | 0.00 | 0.00 | 36 | 1015.8 |
| 20260507071706 | 57 | 272 | 13.9 | 21.7 | 0.00 | 0.00 | 0.00 | 35 | 1015.5 |
| 20260507071205 | 57 | 267 | 15.6 | 22.6 | 0.00 | 0.00 | 0.00 | 35 | 1015.7 |
| 20260507070705 | 57 | 266 | 12.2 | 18.2 | 0.00 | 0.00 | 0.00 | 35 | 1015.6 |
| 20260507070205 | 57 | 269 | 15.6 | 24.3 | 0.00 | 0.00 | 0.00 | 34 | 1015.8 |
| 20260507065705 | 57 | 274 | 16.5 | 24.3 | 0.00 | 0.00 | 0.00 | 34 | 1015.5 |
| 20260507065206 | 57 | 265 | 19.1 | 30.4 | 0.00 | 0.00 | 0.00 | 33 | 1015.7 |
| 20260507064706 | 58 | 271 | 18.2 | 26.9 | 0.00 | 0.00 | 0.00 | 33 | 1015.4 |
| 20260507063705 | 58 | 273 | 19.1 | 24.3 | 0.00 | 0.00 | 0.00 | 33 | 1015.2 |
| 20260507063205 | 58 | 263 | 18.2 | 30.4 | 0.00 | 0.00 | 0.00 | 33 | 1015.4 |
| 20260507062706 | 58 | 249 | 14.8 | 22.6 | 0.00 | 0.00 | 0.00 | 33 | 1015.2 |
| 20260507062205 | 58 | 261 | 18.2 | 26.1 | 0.00 | 0.00 | 0.00 | 33 | 1015.2 |
| 20260507061706 | 59 | 250 | 21.7 | 28.7 | 0.00 | 0.00 | 0.00 | 32 | 1015.2 |
| 20260507061205 | 59 | 260 | 19.1 | 27.8 | 0.00 | 0.00 | 0.00 | 32 | 1015.2 |
| 20260507060706 | 59 | 261 | 18.2 | 33.9 | 0.00 | 0.00 | 0.00 | 32 | 1015.3 |
| 20260507060205 | 59 | 251 | 17.4 | 28.7 | 0.00 | 0.00 | 0.00 | 32 | 1014.9 |
| 20260507054705 | 59 | 255 | 23.5 | 30.4 | 0.00 | 0.00 | 0.00 | 29 | 1014.8 |
| 20260507054206 | 60 | 262 | 18.2 | 27.8 | 0.00 | 0.00 | 0.00 | 30 | 1014.8 |
| 20260507053706 | 60 | 267 | 18.2 | 33.0 | 0.00 | 0.00 | 0.00 | 30 | 1014.7 |
| 20260507053206 | 60 | 243 | 22.6 | 30.4 | 0.00 | 0.00 | 0.00 | 29 | 1014.7 |
| 20260507052706 | 60 | 256 | 26.1 | 33.0 | 0.00 | 0.00 | 0.00 | 29 | 1014.7 |
| 20260507051705 | 60 | 261 | 21.7 | 30.4 | 0.00 | 0.00 | 0.00 | 29 | 1014.5 |
| 20260507051205 | 60 | 256 | 21.7 | 33.9 | 0.00 | 0.00 | 0.00 | 29 | 1014.5 |
| 20260507050705 | 60 | 245 | 19.1 | 32.2 | 0.00 | 0.00 | 0.00 | 28 | 1014.4 |
| 20260507050206 | 60 | 250 | 21.7 | 32.2 | 0.00 | 0.00 | 0.00 | 28 | 1014.4 |
| 20260507045706 | 60 | 247 | 27.8 | 37.4 | 0.00 | 0.00 | 0.00 | 27 | 1014.4 |
| 20260507045206 | 60 | 252 | 22.6 | 31.3 | 0.00 | 0.00 | 0.00 | 28 | 1014.3 |
| 20260507044705 | 60 | 249 | 21.7 | 31.3 | 0.00 | 0.00 | 0.00 | 28 | 1014.3 |
| 20260507044205 | 60 | 249 | 21.7 | 30.4 | 0.00 | 0.00 | 0.00 | 27 | 1014.3 |
| 20260507043706 | 60 | 255 | 24.3 | 33.0 | 0.00 | 0.00 | 0.00 | 27 | 1014.2 |
| 20260507043205 | 60 | 254 | 20.0 | 30.4 | 0.00 | 0.00 | 0.00 | 27 | 1014.3 |
| 20260507042705 | 60 | 243 | 22.6 | 31.3 | 0.00 | 0.00 | 0.00 | 27 | 1014.2 |
| 20260507042206 | 60 | 246 | 26.1 | 34.8 | 0.00 | 0.00 | 0.00 | 27 | 1014.2 |
| 20260507041706 | 60 | 242 | 30.4 | 37.4 | 0.00 | 0.00 | 0.00 | 26 | 1014.2 |
| 20260507041205 | 61 | 242 | 26.1 | 33.0 | 0.00 | 0.00 | 0.00 | 27 | 1014.3 |
| 20260507040705 | 61 | 239 | 24.3 | 31.3 | 0.00 | 0.00 | 0.00 | 27 | 1014.1 |
| 20260507040205 | 61 | 244 | 27.8 | 34.8 | 0.00 | 0.00 | 0.00 | 27 | 1014.0 |
| 20260507035706 | 61 | 242 | 27.8 | 34.8 | 0.00 | 0.00 | 0.00 | 27 | 1013.9 |
| 20260507034705 | 61 | 241 | 27.8 | 38.2 | 0.00 | 0.00 | 0.00 | 27 | 1013.8 |
| 20260507033705 | 61 | 266 | 20.9 | 28.7 | 0.00 | 0.00 | 0.00 | 27 | 1013.5 |
| 20260507033206 | 61 | 262 | 22.6 | 30.4 | 0.00 | 0.00 | 0.00 | 26 | 1013.4 |
| 20260507032705 | 61 | 263 | 23.5 | 30.4 | 0.00 | 0.00 | 0.00 | 25 | 1013.5 |
| 20260507032205 | 61 | 269 | 19.1 | 26.9 | 0.00 | 0.00 | 0.00 | 25 | 1013.5 |
| 20260507031705 | 61 | 265 | 20.0 | 30.4 | 0.00 | 0.00 | 0.00 | 24 | 1013.4 |
| 20260507030705 | 62 | 265 | 15.6 | 30.4 | 0.00 | 0.00 | 0.00 | 25 | 1013.4 |
| 20260507025705 | 61 | 270 | 18.2 | 30.4 | 0.00 | 0.00 | 0.00 | 24 | 1013.6 |
| 20260507025206 | 61 | 255 | 19.1 | 30.4 | 0.00 | 0.00 | 0.00 | 23 | 1013.6 |
| 20260507024705 | 61 | 263 | 26.9 | 35.6 | 0.00 | 0.00 | 0.00 | 22 | 1013.5 |
| 20260507023705 | 61 | 264 | 26.9 | 33.9 | 0.00 | 0.00 | 0.00 | 22 | 1013.8 |
| 20260507023206 | 61 | 269 | 20.9 | 27.8 | 0.00 | 0.00 | 0.00 | 23 | 1013.6 |